Regional Weather Roundup
Issued by NWS Wilmington, NC

Home | Current Version | Previous Version | Text Only | Print | Product List | Glossary On
Versions: 1 2 3 4 5 6 7 8 9 10 11 12 13 14 15 16 17 18 19 20 21 22 23 24 25 26 27
000
ASUS42 KILM 312213
RWRILM
RWRILM
REGIONAL HOURLY WEATHER ROUNDUP
NATIONAL WEATHER SERVICE WILMINGTON NC
600 PM EDT TUE MAY 31 2016

NOTE: "FAIR" INDICATES FEW OR NO CLOUDS BELOW 12,000 FEET WITH NO
SIGNIFICANT WEATHER AND/OR OBSTRUCTIONS TO VISIBILITY.

...............WFO WILMINGTON COUNTY WARNING AREA...............

......COASTAL NC AND SC COUNTIES......

CITY           SKY/WX    TMP DP  RH WIND       PRES   REMARKS
WILMINGTON     CLOUDY    75  73  93 NE12      29.88S
N MYRTLE BEACH CLOUDY    76  72  87 NE9       29.87S
MYRTLE BEACH   PTSUNNY   75  64  69 N7        29.90S

......INLAND NC AND SC COUNTIES.......

CITY           SKY/WX    TMP DP  RH WIND       PRES   REMARKS
LUMBERTON      CLOUDY    79  69  71 E9        29.89R
ELIZABETHTOWN  CLOUDY    74  71  89 CALM      29.90S
WHITEVILLE     LGT RAIN  73  70  91 CALM      29.90R
FLORENCE       SUNNY     88  66  48 N9        29.88S HX  90
DARLINGTON     CLOUDY    80  71  74 N8        29.89F
KINGSTREE      FAIR      82  68  61 CALM      29.87S
HARTSVILLE     PTSUNNY   81  68  65 NE7       29.89S
BENNETTSVILLE  FAIR      81  73  78 NW5       29.88F
CONWAY         PTSUNNY   73  72  94 CALM      29.89S
GEORGETOWN     RAIN      72  70  94 N5        29.89S
MARION         PTSUNNY   77  70  78 E9        29.89R

....................REST OF NORTH CAROLINA......................

.........EASTERN NC.........

CITY           SKY/WX    TMP DP  RH WIND       PRES   REMARKS
CAPE HATTERAS  MOSUNNY   77  71  82 NE7       29.93S
JACKSONVILLE   PTSUNNY   77  73  87 NE13      29.91R
MOREHEAD CITY  PTSUNNY   77  73  87 E8        29.90F
KENANSVILLE    CLOUDY    75  71  86 E3        29.92S
NEW BERN       CLOUDY    74  71  91 E6        29.93S
ELIZABETH CITY MOSUNNY   77  67  71 E10       29.95S

.........CENTRAL NC.........

CITY           SKY/WX    TMP DP  RH WIND       PRES   REMARKS
RALEIGH DURHAM MOSUNNY   84  67  56 NE12      29.92F
ROCKY MOUNT    CLOUDY    83  65  54 NE6       29.91F
ROANOKE RAPIDS NOT AVBL
FAYETTEVILLE   CLOUDY    83  70  64 E7        29.89S
HOFFMAN        CLOUDY    83  67  60 NE8       29.89F

.........WESTERN NC.........

CITY           SKY/WX    TMP DP  RH WIND       PRES   REMARKS
CHARLOTTE      PTSUNNY   84  61  45 VRB5      29.92S THUNDER
GREENSBORO     MOSUNNY   84  62  47 NE9       29.94R
HICKORY        NOT AVBL
BOONE          NOT AVBL
ASHEVILLE      NOT AVBL

.....................REST OF SOUTH CAROLINA.....................

.........EASTERN SC.........

CITY           SKY/WX    TMP DP  RH WIND       PRES   REMARKS
CHARLESTON     PTSUNNY   85  71  63 S8        29.87S HX  90
BEAUFORT MCAS  SUNNY     88  70  55 N6        29.88F HX  93
HILTON HEAD    NOT AVBL

.........CENTRAL SC.........

CITY           SKY/WX    TMP DP  RH WIND       PRES   REMARKS
COLUMBIA       MOSUNNY   90  66  45 N7        29.87S HX  92
ORANGEBURG     MOSUNNY   88  67  49 CALM      29.88S HX  91
SUMTER SHAW    LGT RAIN  86  68  54 NE9       29.86S

.........WESTERN SC.........

CITY           SKY/WX    TMP DP  RH WIND       PRES   REMARKS
GREENVILLE     NOT AVBL
ROCK HILL      MOSUNNY   86  65  49 N6        29.93R
ANDERSON       PTSUNNY   88  62  41 W5        29.91S
CLEMSON        NOT AVBL
GREENWOOD      MOSUNNY   86  65  49 E3        29.92S


...................COASTAL AND OFFSHORE REPORTS..................

................LOCAL PIERS AND NC RESERVE................


STATION/POSITION TIME  SKY/WX   TEMP    WIND        PRES    VSBY
                                AIR SEA DIR/SP/G
                 (UTC)          (F)     (DEG/KT/KT) (MB)    (MI)
JOHNY MRCER PIER 2100            76 79   50/ 17/ 20 1010.6F
NC RESRV MASNBRO NOT AVBL
OCEAN CREST PIER NOT AVBL
SPRINGMAID  PIER 2100            74 78  320/  7/  8 1011.2F


................COASTAL AND OFFSHORE BUOYS................


STATION/POSITION TIME  SKY/WX   TEMP    WIND        PRES    VSBY
                                AIR SEA DIR/SP/G
                 (UTC)          (F)     (DEG/KT/KT) (MB)    (MI)
DIMNDSHOAL 41025 2150            78 81  170/  4/  6 1013.1F
WVE H/P(F/S)=  4/ 8 SWL H/P/D(F/S/D)=  3/150/ 8

CAPE LOOKOUT     2200            76      50/ 11/ 12 1012.0F
ONSLOW BAY 41036 NOT AVBL
ONSLOW BAY 41064 2108            74 76  120/  6/ 10 1011.6F
ONSLOW BAY 41159 2125               76                N/A
WVE H/P(F/S)=  4/ 7

5SE WRITBC 41038 2108            76 76   60/ 14/ 17 1011.8S
MASNBO INL 41110 2106               76                N/A
WVE H/P(F/S)=  4/ 8

WILM HARBR 41108 2126               75                N/A
WVE H/P(F/S)=  3/ 8

27SE WRITB 41037 2108            78 76  120/  6/  8 1011.8F
FRYING PAN 41013 2100            77 80  170/  8/ 10 1009.8F
SUNST NRSH 41024 2108            76 77   40/ 14/ 17 1010.7R
CAPRS NRSH 41029 2108            75 77  350/  4/  6 1013.2R
EDISTO     41004 2150            77 78  260/ 10/ 12 1011.4R
WVE H/P(F/S)=  3/ 8 SWL H/P/D(F/S/D)=  3/ 8



..........OFFSHORE BUOYS BEYOND 100 NM OFFSHORE...........
.....IN A TRIANGLE---HAT TO BERMUDA TO BAHAMAS TO HAT.....


STATION/POSITION TIME  SKY/WX   TEMP    WIND        PRES    VSBY
                                AIR SEA DIR/SP/G
                 (UTC)          (F)     (DEG/KT/KT) (MB)    (MI)
150E HAT   41001 NOT AVBL
W BERMUDA  41048 2150            76 76  170/ 12/ 14 1016.1R
WVE H/P(F/S)=  5/ 8 SWL H/P/D(F/S/D)=  3/130/ 8

ATLANTIC S 41049 2150            79 79  110/ 12/ 16 1020.0R
WVE H/P(F/S)=  4/ 7 SWL H/P/D(F/S/D)=  2/150/ 7

E BAHAMAS  41046 2100            73 81  300/ 14/ 17 1015.6S
NE BAHAMAS 41047 2100            79 80  190/  6/  8 1015.0S
120E CANVRL41010 2120            80 80  190/  8/ 10 1013.3F

END




USA.gov is the U.S. government's official web portal to all federal, state and local government web resources and services.